This is the latest recevied weather packets stored in our database for station/object N3FAA. If no packets are shown the sender has not sent any weather packets the latest 10 day(s).
| Time | Temp. | Humidity | Pressure | Rain* | Wind** | Luminosity | Snow |
|---|---|---|---|---|---|---|---|
| 1777674720 | 30.56° C | 16% | 1009.2 hPa | 0 mm | - | 638 W/m² | - |
| 1777674417 | 30° C | 15% | 1009.1 hPa | 0 mm | - | 656 W/m² | - |
| 1777674115 | 29.44° C | 16% | 1009.3 hPa | 0 mm | - | 625 W/m² | - |
| 1777673810 | 30° C | 16% | 1009.3 hPa | 0 mm | - | 641 W/m² | - |
| 1777673508 | 30° C | 15% | 1009.4 hPa | 0 mm | - | 648 W/m² | - |
| 1777673205 | 30° C | 16% | 1009.6 hPa | 0 mm | - | 652 W/m² | - |
| 1777672902 | 30° C | 16% | 1009.8 hPa | 0 mm | - | 631 W/m² | - |
| 1777672599 | 30° C | 16% | 1010 hPa | 0 mm | - | 588 W/m² | - |
| 1777672294 | 29.44° C | 16% | 1010 hPa | 0 mm | - | 610 W/m² | - |
| 1777671989 | 29.44° C | 16% | 1009.8 hPa | 0 mm | - | 606 W/m² | - |
| 1777671685 | 29.44° C | 16% | 1010 hPa | 0 mm | - | 646 W/m² | - |
| 1777671382 | 30° C | 16% | 1010.1 hPa | 0 mm | - | 628 W/m² | - |
| 1777671078 | 29.44° C | 16% | 1010.2 hPa | 0 mm | - | 624 W/m² | - |
| 1777670775 | 29.44° C | 16% | 1010 hPa | 0 mm | - | 675 W/m² | - |
| 1777670472 | 29.44° C | 15% | 1010.1 hPa | 0 mm | - | 695 W/m² | - |
| 1777670168 | 30° C | 16% | 1010.2 hPa | 0 mm | - | 656 W/m² | - |
| 1777669866 | 29.44° C | 15% | 1010.2 hPa | 0 mm | - | 642 W/m² | - |
| 1777669563 | 30° C | 15% | 1010.4 hPa | 0 mm | - | 655 W/m² | - |
| 1777669259 | 29.44° C | 16% | 1010.3 hPa | 0 mm | - | 671 W/m² | - |
| 1777668956 | 29.44° C | 17% | 1010.5 hPa | 0 mm | - | 690 W/m² | - |
| 1777668654 | 29.44° C | 17% | 1010.7 hPa | 0 mm | - | 718 W/m² | - |
| 1777668350 | 29.44° C | 17% | 1010.5 hPa | 0 mm | - | 736 W/m² | - |
| 1777668046 | 29.44° C | 17% | 1010.5 hPa | 0 mm | - | 764 W/m² | - |
| 1777667742 | 28.89° C | 17% | 1010.6 hPa | 0 mm | - | 736 W/m² | - |
| 1777667440 | 28.33° C | 18% | 1010.5 hPa | 0 mm | - | 699 W/m² | - |
* Rain latest hour (hover to see other rain measurements)
** Current wind speed in m/s (hover to see current wind gust speed)